Temperature
31 30 30 30 31 31 30 28 27 26 27 27 26 23 22 22 22 23 22 22 22 21 21 20 20 19 19 19 19 19 18 18 18 18 18 17 17 17 17 17 16 16 16 15
30 30 31 32 32 31 30 28 27 27 28 28 26 23 23 23 23 22 22 22 22 21 21 20 20 20 19 19 19 19 18 18 18 18 18 18 17 17 17 16 16 15 15 15
31 31 32 32 31 30 29 28 28 28 28 27 26 24 22 23 23 23 22 22 22 22 21 20 20 20 19 19 19 19 18 18 18 18 17 17 17 17 17 16 16 15 15 14
31 32 31 31 30 30 29 29 29 28 26 25 25 23 22 23 24 24 23 23 23 22 22 21 21 20 20 19 19 19 18 18 18 17 17 17 16 16 16 16 16 15 15 14
31 31 31 30 30 31 30 30 28 27 25 24 25 24 23 22 23 24 24 24 24 23 22 22 21 21 20 20 20 19 18 18 18 17 17 16 16 16 16 15 15 15 14 14
31 32 32 31 32 31 31 29 26 23 22 22 24 25 23 24 24 25 25 25 24 24 23 23 22 21 21 20 20 19 19 18 18 17 16 16 16 15 15 15 15 14 14 14
28 29 30 31 30 31 30 27 24 21 20 22 25 26 25 26 26 26 26 25 25 24 24 23 23 22 21 21 20 20 19 18 17 17 16 16 15 15 15 14 14 14 14 14
28 27 28 29 30 30 30 29 26 25 24 25 26 26 27 28 28 27 27 26 25 25 24 24 23 22 22 21 21 20 19 18 17 16 16 15 15 14 14 14 14 14 13 13
28 27 29 30 31 31 30 29 30 28 27 25 26 27 27 28 28 28 27 26 26 25 25 24 23 23 22 21 21 20 19 18 17 16 16 15 15 14 14 14 13 13 13 13
31 29 30 31 32 31 31 31 30 28 27 26 25 25 25 27 27 28 28 27 27 26 25 25 24 23 22 21 20 19 18 17 17 16 15 15 15 14 13 13 13 12 12 12
31 29 30 30 29 30 30 30 29 29 28 26 23 24 27 27 28 28 28 27 27 27 26 25 24 23 22 21 20 19 18 17 16 16 15 15 14 13 13 13 13 12 12 12
31 30 29 28 27 28 30 30 29 28 27 28 27 26 29 29 30 29 29 28 27 27 26 25 24 22 21 21 20 19 18 17 16 16 15 14 14 13 13 13 13 12 12 12
30 29 27 26 24 24 26 28 30 30 29 28 27 26 28 29 30 29 29 28 27 27 26 25 23 22 21 20 20 19 18 17 17 16 15 15 14 13 13 13 12 12 12 12
30 29 28 26 24 23 24 27 29 29 28 27 27 26 28 29 29 29 29 28 27 26 25 24 23 22 21 20 19 18 18 17 17 16 15 15 14 13 13 13 12 12 12 12
29 28 28 28 28 27 27 28 29 29 29 28 28 28 28 29 29 29 28 28 27 26 25 24 23 21 21 20 19 18 18 17 16 16 15 15 14 14 13 13 12 12 12 12
25 26 27 28 29 29 29 29 30 30 30 29 29 29 29 29 29 28 28 27 27 26 25 24 22 21 20 20 19 18 17 17 16 15 15 15 14 14 13 13 13 12 12 12
24 25 26 26 28 28 27 29 30 30 30 30 29 29 29 29 29 28 27 27 26 26 25 24 22 21 20 20 19 18 17 17 16 15 15 15 14 14 13 13 13 12 12 12
26 26 26 27 27 26 28 30 30 30 30 30 30 30 30 29 28 28 27 26 26 25 25 24 23 22 20 20 19 18 17 17 16 16 15 15 14 14 14 13 13 12 12 12
26 26 26 26 26 27 28 28 27 27 28 30 30 30 29 29 28 28 27 26 25 25 24 24 23 22 21 20 19 18 17 17 16 16 16 15 15 14 14 13 13 13 12 12
26 26 26 26 26 25 26 26 26 26 25 27 28 28 29 28 27 27 26 26 25 25 24 23 22 22 21 20 19 18 18 17 17 16 16 15 15 15 14 14 13 13 12 12
23 24 25 26 25 26 25 25 25 23 22 24 26 27 27 27 27 26 26 26 25 24 24 23 22 22 21 20 19 18 18 17 17 16 16 15 15 15 14 14 13 13 12 12
23 24 24 24 23 22 22 23 22 20 21 23 24 25 26 26 26 26 26 25 24 24 23 22 22 21 20 20 19 18 18 17 17 16 16 15 15 15 14 13 13 13 12 12
25 25 26 24 22 20 19 19 20 21 21 23 23 24 24 25 25 25 24 23 23 23 22 22 21 21 20 19 19 18 17 17 16 16 16 15 15 15 14 13 13 12 12 12
25 25 25 23 21 19 20 20 20 21 22 22 22 23 23 23 23 23 22 22 22 22 21 21 20 20 19 18 18 18 17 16 16 16 15 15 15 14 14 13 13 13 12 12
26 26 25 22 21 20 20 21 21 21 21 21 21 21 21 21 21 21 20 20 20 20 20 20 20 19 18 18 17 17 16 16 16 15 15 15 14 14 14 14 13 13 13 13
26 25 24 22 22 22 20 21 21 21 21 20 20 20 19 19 19 19 19 19 19 19 19 18 18 18 18 17 17 16 16 15 15 15 15 14 14 14 14 14 14 14 14 13
Wind_Speed
14 11 11 11 10 11 9 3 3 3 6 4 4 10 10 9 5 7 7 7 10 11 11 10 10 10 10 9 8 7 6 5 3 2 1 1 1 0 1 3 5 3 3 4
13 11 12 11 10 10 9 7 5 5 6 3 4 6 4 5 5 7 9 8 10 12 11 9 9 9 10 9 8 6 6 6 3 3 1 0 1 1 0 2 3 3 2 2
13 8 8 9 9 9 6 7 7 5 2 1 1 2 2 5 6 7 9 10 11 13 13 12 10 9 10 10 9 8 7 6 3 3 1 1 0 2 1 1 1 2 1 2
10 8 7 9 8 10 6 6 8 7 3 2 3 2 3 5 7 9 11 12 12 12 13 13 12 11 10 10 10 8 7 6 4 2 1 2 2 2 1 1 1 1 2 3
10 9 9 8 6 7 7 6 7 9 6 4 5 2 4 8 8 10 11 11 12 13 13 12 13 11 11 11 10 9 8 6 5 3 2 2 3 3 3 3 3 2 3 4
12 11 9 7 5 5 7 5 7 11 6 4 6 3 4 7 10 12 13 13 13 14 13 13 12 11 10 9 9 9 9 7 5 4 3 2 2 3 4 5 4 3 3 3
8 10 8 7 7 5 7 6 3 1 2 6 7 1 6 9 12 12 14 15 14 14 13 12 11 11 10 9 9 8 9 8 6 5 3 1 1 3 5 5 4 3 4 3
8 4 5 9 8 6 8 7 5 6 3 2 2 4 9 11 11 11 11 13 14 13 12 12 11 10 9 9 8 8 9 7 6 5 3 1 1 3 3 4 4 5 4 4
5 5 10 11 9 7 7 7 8 8 6 3 1 7 11 11 11 11 12 13 14 14 14 14 13 11 10 8 7 7 8 6 4 3 3 3 3 3 3 3 4 4 4 5
7 8 6 7 8 8 8 9 7 6 6 3 3 2 6 11 12 12 12 12 13 14 14 13 12 10 9 8 8 7 7 5 3 3 4 3 2 2 3 4 4 4 5 5
6 7 7 5 6 9 8 8 5 6 7 5 2 2 8 11 11 12 13 13 12 13 13 12 11 10 10 9 9 8 7 6 5 5 4 1 2 3 3 4 5 5 4 5
5 7 8 5 11 15 10 8 6 5 6 6 3 2 6 6 9 10 11 12 12 11 11 12 12 11 10 9 9 9 8 7 6 6 4 4 3 4 4 5 5 4 5 5
4 5 8 5 10 12 12 12 10 7 6 7 5 1 3 3 4 7 8 9 9 9 10 11 12 11 10 8 7 7 6 6 6 5 5 5 4 4 4 5 5 5 5 6
6 7 10 8 6 8 11 15 13 8 7 6 5 3 6 5 5 6 6 8 9 9 9 10 11 10 9 8 7 6 5 5 5 4 4 4 4 4 4 5 5 5 5 6
7 9 11 10 9 10 11 13 11 10 9 9 7 7 6 4 4 5 6 7 8 10 10 10 11 10 9 8 7 6 5 5 3 3 3 4 4 4 4 5 5 5 6 8
5 8 13 14 14 11 13 14 12 11 10 10 8 5 3 6 5 4 4 5 7 9 10 11 11 10 10 9 8 7 6 6 6 5 5 4 3 4 5 5 6 6 6 6
7 8 11 15 15 13 13 12 11 9 8 8 6 2 4 4 4 4 4 5 6 8 9 10 11 10 10 9 8 7 7 6 6 6 5 5 5 5 5 6 6 6 6 6
9 8 8 13 14 16 10 8 8 8 7 5 3 3 3 4 5 5 7 6 6 7 8 9 10 11 11 10 10 8 8 8 7 7 7 6 5 5 5 5 6 6 6 6
8 8 10 12 15 14 10 5 5 7 5 4 1 3 2 3 2 5 10 9 7 6 6 7 9 11 11 11 11 10 8 8 8 8 7 6 5 5 5 5 6 6 6 6
7 7 10 12 14 13 4 3 4 4 3 8 6 4 2 2 1 2 8 9 8 7 7 8 9 9 10 11 11 10 9 8 8 7 6 5 5 5 6 6 6 7 6 7
7 9 13 13 12 7 5 3 4 1 2 8 7 5 5 3 2 3 4 6 6 6 7 8 8 8 9 10 10 9 9 8 7 6 5 5 5 6 7 8 7 7 7 8
9 10 11 8 8 3 10 8 5 3 6 9 10 9 8 6 5 2 1 4 5 6 7 8 7 7 8 9 9 9 8 7 5 5 5 5 5 7 8 6 6 7 8 9
6 6 5 1 2 5 7 5 2 3 4 8 10 10 9 8 8 6 5 4 2 4 5 6 6 6 7 7 8 8 7 5 5 5 6 5 6 6 7 7 9 8 9 10
4 5 4 4 7 7 7 6 4 3 6 9 11 12 12 11 11 10 8 5 3 2 1 4 6 6 6 6 6 6 5 5 5 6 5 6 7 8 9 9 9 9 8 8
6 4 1 4 7 8 7 7 8 9 10 11 13 13 14 14 14 13 11 10 7 5 4 2 2 3 5 6 6 6 5 5 5 6 6 7 9 10 9 9 9 10 9 9
6 5 3 3 5 5 5 6 9 10 11 13 13 14 15 15 14 14 12 11 10 8 7 5 3 1 1 3 5 4 4 4 5 6 7 8 8 8 9 8 9 14 15 15
Wind_Direction
264 257 282 296 307 308 318 338 331 302 276 280 135 144 179 199 202 157 146 140 139 136 130 129 131 129 128 127 126 128 128 133 148 135 142 146 130 98 121 131 115 96 42 22
263 266 273 290 304 307 330 321 304 274 261 296 108 120 162 176 176 158 147 150 145 137 136 141 144 142 140 140 137 141 149 155 165 125 87 111 22 298 228 76 125 121 74 349
279 282 288 293 307 313 314 306 299 284 284 5 80 135 174 187 165 163 162 160 157 155 155 158 158 154 152 153 160 166 160 153 157 128 198 293 39 294 325 63 140 104 25 316
295 303 306 301 300 301 300 296 301 307 305 273 206 205 201 216 193 185 180 170 164 163 161 164 165 167 167 168 173 160 155 153 155 168 251 287 278 292 312 326 47 57 311 280
281 280 282 279 288 303 310 325 334 345 341 300 248 207 184 193 211 199 185 178 169 170 170 173 173 174 178 178 173 164 159 160 166 187 230 279 308 333 355 8 353 325 278 259
294 295 287 296 288 289 302 318 3 15 355 304 253 228 161 179 199 190 184 183 176 175 174 173 174 173 181 181 175 168 160 160 167 196 226 239 303 334 327 318 303 293 291 282
273 281 294 289 275 270 288 298 340 22 259 246 237 218 140 166 178 180 178 178 178 179 175 172 177 177 181 184 181 168 154 162 180 196 209 226 288 296 271 266 292 315 312 323
289 299 274 264 263 267 265 274 282 292 275 219 213 138 137 143 150 160 168 172 176 177 173 176 176 179 186 185 175 158 152 165 180 189 176 181 254 278 307 7 350 326 316 329
293 265 223 238 260 275 286 292 296 300 308 324 241 118 121 136 145 156 166 173 180 181 180 181 181 184 181 170 158 154 146 156 172 181 155 200 223 258 311 326 290 292 330 318
274 290 251 230 241 239 268 298 307 311 316 332 42 96 159 166 164 168 175 180 181 183 184 182 176 173 155 147 140 139 138 148 166 201 211 224 195 234 257 273 300 310 301 296
281 289 285 270 287 290 247 261 288 309 319 333 354 320 163 171 170 175 180 182 185 188 184 173 158 148 142 145 144 144 151 163 182 208 203 241 260 271 277 270 270 276 282 292
282 286 297 338 349 331 301 273 267 276 301 305 312 103 115 156 170 171 177 178 183 183 174 160 150 143 150 158 160 162 167 177 187 195 188 203 226 246 262 273 279 285 282 280
311 298 290 322 7 341 312 295 279 266 280 292 310 126 164 216 173 160 169 168 166 166 164 153 146 150 159 164 165 168 177 186 191 187 186 201 216 236 249 266 273 278 281 281
294 275 283 284 229 219 249 269 275 268 269 284 301 274 220 215 187 166 163 165 165 160 156 153 147 154 161 162 160 171 188 192 193 189 200 212 222 240 255 265 269 272 276 278
298 274 281 285 259 236 247 255 261 262 268 273 269 258 227 176 163 156 162 165 162 159 163 160 159 160 162 164 166 180 188 181 185 198 227 232 231 240 250 257 262 267 271 279
307 294 297 291 283 277 275 276 272 269 269 268 265 269 126 130 135 141 152 165 165 168 173 170 167 165 167 172 178 184 185 179 177 200 231 239 236 249 254 258 257 261 265 274
249 260 279 284 291 293 281 277 273 269 268 270 266 210 138 141 138 145 154 174 180 179 180 175 172 170 170 176 177 180 181 183 187 199 222 234 235 247 255 268 275 277 280 283
242 258 269 275 279 275 281 289 288 266 246 248 234 172 158 146 146 160 165 175 184 188 184 173 173 170 172 174 175 180 188 188 195 204 217 226 232 245 253 259 266 269 275 278
255 247 263 274 275 272 278 310 328 322 315 334 237 148 130 122 201 196 168 170 179 186 170 165 175 179 173 174 175 178 194 196 202 211 215 224 232 246 256 262 266 270 272 274
273 235 247 258 268 278 313 13 349 321 324 1 16 35 25 153 280 82 146 165 176 175 161 166 179 173 166 173 173 177 193 203 210 216 216 222 227 240 253 261 263 267 268 271
263 250 248 258 268 280 14 45 37 327 30 342 354 17 358 16 23 124 173 164 157 162 165 169 176 171 170 170 169 181 198 207 210 213 214 220 226 235 244 247 248 252 261 268
251 251 251 257 272 295 9 24 55 15 349 338 359 4 2 355 339 337 98 125 148 163 175 177 176 172 167 168 173 188 205 208 207 212 222 228 231 249 260 253 254 254 258 265
261 286 292 229 137 110 74 70 42 8 4 352 2 353 354 351 358 11 39 74 125 162 173 173 172 168 165 171 179 197 202 201 210 220 230 238 245 247 254 260 262 259 254 258
331 325 316 69 101 111 114 123 118 58 32 23 17 15 12 13 15 19 30 41 49 51 152 163 162 172 176 177 185 194 190 193 210 226 235 243 247 249 247 245 253 259 261 263
285 268 312 92 107 107 76 66 71 60 48 41 36 30 27 27 25 25 29 26 30 36 30 55 146 176 182 178 184 187 187 198 218 231 240 249 254 255 252 249 246 249 251 254
352 8 2 92 100 99 84 61 60 62 57 49 43 39 37 33 28 28 28 27 25 25 25 26 21 353 224 187 186 188 190 204 228 243 248 256 260 261 261 258 258 244 239 243
Height
1487 1488 1488 1481 1476 1475 1476 1485 1491 1488 1480 1482 1488 1498 1499 1500 1500 1499 1501 1505 1509 1512 1516 1519 1522 1525 1527 1529 1532 1534 1536 1538 1540 1541 1542 1543 1544 1545 1545 1545 1544 1544 1543 1543
1485 1486 1480 1474 1472 1472 1476 1483 1486 1484 1479 1481 1488 1497 1497 1497 1499 1500 1501 1505 1508 1512 1516 1520 1523 1526 1528 1530 1532 1534 1536 1538 1540 1541 1542 1543 1544 1544 1544 1544 1543 1542 1542 1541
1481 1477 1472 1471 1473 1476 1479 1482 1482 1482 1478 1480 1490 1500 1501 1498 1499 1501 1502 1505 1509 1511 1515 1519 1522 1525 1528 1530 1532 1535 1536 1538 1539 1540 1541 1542 1542 1543 1543 1542 1542 1541 1540 1540
1475 1471 1472 1473 1475 1474 1481 1474 1475 1478 1486 1496 1495 1512 1505 1499 1498 1500 1502 1503 1506 1510 1514 1518 1521 1524 1527 1529 1531 1534 1535 1536 1537 1538 1539 1540 1541 1541 1541 1540 1540 1539 1538 1538
1475 1471 1472 1474 1472 1471 1473 1471 1477 1483 1491 1497 1494 1502 1505 1499 1500 1497 1498 1501 1504 1509 1513 1517 1520 1523 1526 1528 1530 1532 1533 1534 1536 1536 1537 1537 1538 1538 1538 1537 1537 1536 1536 1536
1471 1469 1468 1468 1467 1468 1469 1474 1483 1496 1505 1516 1497 1498 1504 1494 1493 1492 1494 1499 1503 1507 1511 1515 1518 1522 1525 1527 1529 1530 1531 1532 1534 1534 1535 1535 1535 1535 1535 1535 1535 1534 1534 1534
1481 1474 1471 1469 1470 1469 1470 1483 1507 1525 1530 1516 1487 1488 1492 1482 1482 1486 1490 1495 1500 1504 1509 1513 1517 1520 1523 1525 1527 1529 1529 1530 1532 1532 1533 1533 1533 1532 1532 1532 1533 1532 1532 1532
1483 1490 1479 1470 1469 1472 1471 1476 1498 1509 1508 1498 1484 1488 1481 1474 1479 1483 1488 1493 1498 1502 1506 1511 1515 1518 1521 1523 1525 1527 1527 1528 1529 1530 1530 1530 1530 1530 1531 1530 1530 1530 1529 1529
1481 1486 1470 1467 1463 1464 1470 1471 1466 1477 1483 1499 1491 1479 1478 1474 1478 1482 1487 1491 1495 1499 1504 1508 1512 1515 1518 1521 1523 1524 1525 1527 1528 1528 1528 1528 1528 1528 1527 1527 1527 1527 1526 1526
1464 1474 1464 1460 1460 1460 1463 1463 1467 1478 1490 1499 1497 1492 1489 1480 1479 1480 1483 1488 1492 1496 1500 1504 1508 1512 1515 1518 1520 1522 1523 1524 1525 1526 1526 1527 1526 1525 1525 1524 1524 1524 1523 1522
1459 1471 1468 1463 1467 1469 1466 1467 1468 1471 1475 1493 1513 1503 1472 1473 1474 1476 1480 1484 1489 1493 1497 1501 1505 1509 1513 1516 1518 1520 1521 1522 1523 1523 1523 1524 1523 1523 1523 1522 1522 1521 1520 1519
1460 1466 1474 1473 1472 1468 1463 1464 1467 1481 1484 1479 1488 1491 1465 1466 1468 1472 1476 1480 1485 1489 1494 1498 1502 1506 1511 1514 1516 1518 1519 1520 1520 1521 1521 1521 1520 1520 1519 1519 1519 1518 1517 1515
1461 1471 1484 1487 1494 1486 1479 1468 1462 1463 1471 1478 1487 1490 1469 1467 1467 1470 1474 1478 1483 1487 1492 1496 1500 1504 1508 1512 1514 1516 1517 1518 1518 1518 1518 1518 1518 1517 1517 1516 1515 1514 1513 1512
1464 1470 1480 1494 1496 1490 1486 1473 1463 1464 1474 1478 1481 1480 1470 1467 1467 1469 1473 1477 1481 1486 1490 1494 1498 1502 1506 1509 1511 1513 1514 1515 1516 1516 1516 1516 1515 1514 1514 1513 1512 1511 1510 1509
1467 1471 1469 1468 1467 1470 1470 1465 1460 1461 1463 1471 1471 1470 1465 1463 1465 1468 1471 1475 1479 1484 1488 1492 1496 1500 1503 1506 1508 1510 1511 1512 1513 1513 1513 1513 1512 1512 1511 1510 1509 1508 1507 1506
1473 1475 1471 1469 1461 1459 1461 1456 1453 1454 1455 1457 1459 1461 1457 1460 1464 1467 1471 1474 1478 1483 1487 1491 1494 1497 1500 1503 1505 1507 1508 1509 1509 1509 1510 1510 1509 1508 1508 1507 1506 1505 1503 1502
1475 1475 1478 1475 1461 1460 1466 1455 1451 1451 1449 1452 1458 1457 1456 1459 1463 1467 1471 1474 1477 1481 1484 1488 1491 1494 1497 1499 1502 1503 1504 1505 1506 1506 1506 1506 1506 1505 1505 1504 1503 1501 1500 1498
1467 1470 1470 1470 1468 1480 1459 1443 1443 1445 1445 1445 1448 1450 1453 1457 1461 1465 1469 1473 1476 1479 1481 1484 1488 1491 1493 1496 1498 1499 1501 1501 1502 1503 1503 1503 1502 1502 1501 1500 1499 1497 1496 1494
1459 1464 1468 1468 1469 1462 1450 1446 1449 1454 1451 1446 1446 1449 1453 1456 1459 1461 1465 1470 1474 1476 1479 1481 1484 1487 1489 1491 1493 1495 1497 1498 1498 1499 1499 1499 1498 1498 1497 1495 1494 1493 1491 1489
1458 1459 1464 1464 1470 1472 1458 1451 1449 1455 1462 1453 1451 1451 1453 1456 1461 1462 1464 1468 1471 1474 1476 1478 1481 1483 1485 1487 1489 1491 1492 1494 1494 1495 1495 1495 1494 1493 1492 1491 1490 1488 1486 1485
1469 1466 1463 1462 1464 1460 1455 1452 1454 1470 1474 1463 1458 1456 1456 1457 1460 1463 1464 1465 1468 1471 1473 1475 1478 1480 1481 1483 1485 1486 1488 1489 1490 1490 1490 1490 1489 1488 1487 1486 1485 1483 1481 1480
1464 1465 1462 1461 1471 1474 1463 1460 1466 1472 1467 1463 1460 1459 1458 1459 1459 1460 1461 1463 1465 1468 1470 1472 1474 1476 1478 1479 1480 1482 1483 1485 1486 1486 1485 1485 1484 1484 1483 1482 1480 1478 1477 1474
1453 1451 1449 1455 1466 1467 1466 1469 1469 1467 1466 1465 1463 1462 1461 1460 1460 1460 1460 1462 1463 1465 1467 1469 1470 1472 1474 1475 1476 1478 1479 1481 1481 1481 1481 1480 1479 1479 1478 1477 1475 1473 1472 1470
1446 1447 1449 1456 1464 1467 1468 1469 1469 1469 1468 1466 1464 1464 1463 1461 1461 1461 1461 1461 1462 1463 1465 1466 1467 1469 1470 1471 1473 1473 1475 1475 1476 1476 1475 1475 1474 1473 1472 1471 1470 1469 1467 1466
1446 1446 1450 1458 1464 1467 1471 1470 1469 1469 1468 1467 1466 1466 1465 1464 1463 1463 1462 1462 1462 1463 1464 1464 1466 1466 1468 1469 1469 1470 1470 1471 1471 1471 1470 1469 1468 1467 1466 1465 1463 1462 1460 1459
1447 1449 1451 1459 1462 1465 1470 1470 1469 1469 1469 1470 1469 1469 1468 1467 1466 1465 1464 1464 1464 1463 1464 1464 1464 1465 1466 1466 1466 1467 1467 1467 1467 1466 1465 1463 1462 1461 1460 1458 1457 1455 1454 1452